| time (UTC) | temp C | wind direction | speed KPH | gust KPH | rain 1hr cm | rain 24hr cm | rain mn cm | humidity % | barometer mb |
| 20260507122048 | 16 | 99 | 1.6 | 8.0 | 0.00 | 0.00 | 0.00 | 30 | 1018.6 |
| 20260507121044 | 16 | 350 | 1.6 | 4.8 | 0.00 | 0.00 | 0.00 | 31 | 1018.5 |
| 20260507115037 | 16 | 5 | 1.6 | 4.8 | 0.00 | 0.00 | 0.00 | 31 | 1018.5 |
| 20260507114034 | 16 | 88 | 1.6 | 6.4 | 0.00 | 0.00 | 0.00 | 32 | 1018.5 |
| 20260507113050 | 16 | 32 | 0.0 | 4.8 | 0.00 | 0.00 | 0.00 | 31 | 1018.5 |
| 20260507112026 | 16 | 317 | 1.6 | 4.8 | 0.00 | 0.00 | 0.00 | 31 | 1018.5 |
| 20260507111042 | 16 | 26 | 1.6 | 4.8 | 0.00 | 0.00 | 0.00 | 29 | 1018.6 |
| 20260507110018 | 16 | 56 | 0.0 | 3.2 | 0.00 | 0.00 | 0.00 | 32 | 1018.6 |
| 20260507105135 | 16 | 315 | 0.0 | 3.2 | 0.00 | 0.00 | 0.00 | 37 | 1018.6 |
| 20260507104111 | 16 | 289 | 1.6 | 6.4 | 0.00 | 0.00 | 0.00 | 37 | 1018.6 |
| 20260507103108 | 16 | 71 | 1.6 | 6.4 | 0.00 | 0.00 | 0.00 | 36 | 1018.6 |
| 20260507102124 | 16 | 315 | 3.2 | 11.3 | 0.00 | 0.00 | 0.00 | 39 | 1018.5 |
| 20260507101100 | 16 | 44 | 3.2 | 6.4 | 0.00 | 0.00 | 0.00 | 40 | 1018.6 |
| 20260507100057 | 16 | 74 | 3.2 | 8.0 | 0.00 | 0.00 | 0.00 | 38 | 1018.5 |
| 20260507095053 | 16 | 25 | 3.2 | 11.3 | 0.00 | 0.00 | 0.00 | 39 | 1018.5 |
| 20260507094049 | 16 | 17 | 1.6 | 6.4 | 0.00 | 0.00 | 0.00 | 39 | 1018.5 |
| 20260507093046 | 16 | 94 | 3.2 | 8.0 | 0.00 | 0.00 | 0.00 | 39 | 1018.5 |
| 20260507092041 | 16 | 130 | 3.2 | 12.9 | 0.00 | 0.00 | 0.00 | 40 | 1018.5 |
| 20260507091058 | 16 | 207 | 1.6 | 6.4 | 0.00 | 0.00 | 0.00 | 39 | 1018.5 |
| 20260507090034 | 16 | 256 | 1.6 | 6.4 | 0.00 | 0.00 | 0.00 | 41 | 1018.5 |
| 20260507085031 | 15 | 324 | 3.2 | 9.7 | 0.00 | 0.00 | 0.00 | 42 | 1018.5 |
| 20260507084047 | 16 | 50 | 3.2 | 12.9 | 0.00 | 0.00 | 0.00 | 43 | 1018.5 |
| 20260507083023 | 15 | 300 | 1.6 | 6.4 | 0.00 | 0.00 | 0.00 | 45 | 1018.6 |
| 20260507082019 | 15 | 77 | 1.6 | 4.8 | 0.00 | 0.00 | 0.00 | 48 | 1018.5 |
| 20260507081015 | 14 | 9 | 1.6 | 6.4 | 0.00 | 0.00 | 0.00 | 52 | 1018.5 |
| 20260507080112 | 13 | 111 | 1.6 | 4.8 | 0.00 | 0.00 | 0.00 | 55 | 1018.5 |
| 20260507075108 | 12 | 45 | 1.6 | 6.4 | 0.00 | 0.00 | 0.00 | 59 | 1018.3 |
| 20260507074104 | 12 | 352 | 1.6 | 6.4 | 0.00 | 0.00 | 0.00 | 61 | 1018.3 |
| 20260507073101 | 11 | 302 | 1.6 | 6.4 | 0.00 | 0.00 | 0.00 | 61 | 1018.3 |
| 20260507072057 | 11 | 311 | 1.6 | 4.8 | 0.00 | 0.00 | 0.00 | 64 | 1018.2 |
| 20260507071054 | 11 | 10 | 1.6 | 3.2 | 0.00 | 0.00 | 0.00 | 66 | 1018.1 |
| 20260507070050 | 11 | 344 | 1.6 | 4.8 | 0.00 | 0.00 | 0.00 | 66 | 1018.1 |
| 20260507065047 | 10 | 56 | 0.0 | 4.8 | 0.00 | 0.00 | 0.00 | 67 | 1018.2 |
| 20260507062035 | 10 | 19 | 1.6 | 6.4 | 0.00 | 0.03 | 0.00 | 72 | 1017.9 |
| 20260507061031 | 10 | 327 | 1.6 | 4.8 | 0.00 | 0.03 | 0.00 | 75 | 1017.8 |
| 20260507060028 | 9 | 331 | 1.6 | 4.8 | 0.00 | 0.03 | 0.00 | 75 | 1017.7 |
| 20260507055024 | 9 | 56 | 1.6 | 6.4 | 0.00 | 0.03 | 0.00 | 76 | 1017.6 |
| 20260507054021 | 9 | 70 | 1.6 | 4.8 | 0.00 | 0.03 | 0.00 | 78 | 1017.6 |
| 20260507053016 | 9 | 293 | 0.0 | 3.2 | 0.00 | 0.03 | 0.00 | 79 | 1017.5 |
| 20260507052134 | 8 | 23 | 0.0 | 3.2 | 0.00 | 0.03 | 0.00 | 80 | 1017.5 |
| 20260507051109 | 8 | 14 | 1.6 | 3.2 | 0.00 | 0.03 | 0.00 | 81 | 1017.4 |
| 20260507050126 | 8 | 0.0 | 3.2 | 0.00 | 0.03 | 0.00 | 82 | 1017.2 | |
| 20260507045104 | 8 | 0.0 | 3.2 | 0.00 | 0.03 | 0.00 | 82 | 1017.1 | |
| 20260507044059 | 8 | 0.0 | 3.2 | 0.00 | 0.03 | 0.00 | 82 | 1017.0 | |
| 20260507043114 | 8 | 315 | 0.0 | 4.8 | 0.00 | 0.03 | 0.00 | 83 | 1017.0 |
| 20260507042050 | 8 | 0.0 | 3.2 | 0.00 | 0.03 | 0.00 | 83 | 1016.9 | |
| 20260507041106 | 8 | 0.0 | 1.6 | 0.00 | 0.03 | 0.00 | 83 | 1016.7 | |
| 20260507035038 | 8 | 315 | 0.0 | 3.2 | 0.00 | 0.03 | 0.00 | 82 | 1016.5 |
| 20260507034055 | 8 | 0.0 | 0.0 | 0.00 | 0.03 | 0.00 | 82 | 1016.5 | |
| 20260507033031 | 8 | 0.0 | 0.0 | 0.00 | 0.03 | 0.00 | 81 | 1016.5 | |
| 20260507032027 | 8 | 0.0 | 0.0 | 0.00 | 0.03 | 0.00 | 81 | 1016.5 | |
| 20260507031024 | 8 | 0.0 | 0.0 | 0.00 | 0.03 | 0.00 | 80 | 1016.5 | |
| 20260507030020 | 8 | 0.0 | 0.0 | 0.00 | 0.03 | 0.00 | 80 | 1016.5 | |
| 20260507025016 | 8 | 0.0 | 0.0 | 0.00 | 0.03 | 0.00 | 79 | 1016.3 | |
| 20260507024113 | 8 | 0.0 | 0.0 | 0.00 | 0.03 | 0.00 | 79 | 1016.2 | |
| 20260507023110 | 8 | 0.0 | 0.0 | 0.00 | 0.03 | 0.00 | 78 | 1016.1 | |
| 20260507022106 | 8 | 0.0 | 0.0 | 0.00 | 0.03 | 0.00 | 78 | 1016.1 | |
| 20260507021102 | 8 | 0.0 | 0.0 | 0.00 | 0.03 | 0.00 | 77 | 1016.0 | |
| 20260507020058 | 8 | 0.0 | 0.0 | 0.00 | 0.03 | 0.00 | 77 | 1016.0 | |
| 20260507015055 | 8 | 0.0 | 0.0 | 0.00 | 0.03 | 0.00 | 77 | 1015.8 | |
| 20260507014051 | 8 | 0.0 | 0.0 | 0.00 | 0.03 | 0.00 | 77 | 1015.8 | |
| 20260507013047 | 9 | 0.0 | 0.0 | 0.00 | 0.03 | 0.00 | 76 | 1015.8 | |
| 20260507012044 | 9 | 0.0 | 0.0 | 0.00 | 0.03 | 0.00 | 76 | 1015.8 | |
| 20260507011040 | 9 | 0.0 | 0.0 | 0.00 | 0.03 | 0.00 | 75 | 1015.7 | |
| 20260507010037 | 9 | 0.0 | 0.0 | 0.00 | 0.03 | 0.00 | 75 | 1015.7 | |
| 20260507005032 | 9 | 0.0 | 0.0 | 0.00 | 0.03 | 0.00 | 74 | 1015.7 | |
| 20260507004028 | 9 | 0.0 | 0.0 | 0.00 | 0.03 | 0.00 | 74 | 1015.6 | |
| 20260507003025 | 9 | 0.0 | 0.0 | 0.00 | 0.03 | 0.00 | 74 | 1015.6 | |
| 20260507002020 | 9 | 0.0 | 0.0 | 0.00 | 0.03 | 0.00 | 73 | 1015.5 | |
| 20260507001036 | 9 | 0.0 | 0.0 | 0.00 | 0.03 | 0.00 | 73 | 1015.5 | |
| 20260507000113 | 9 | 0.0 | 0.0 | 0.00 | 0.03 | 0.00 | 73 | 1015.5 | |
| 20260506235109 | 9 | 315 | 0.0 | 3.2 | 0.00 | 0.03 | 0.00 | 72 | 1015.4 |
| 20260506234106 | 9 | 0.0 | 0.0 | 0.00 | 0.03 | 0.00 | 72 | 1015.5 | |
| 20260506233122 | 9 | 0.0 | 0.0 | 0.00 | 0.03 | 0.00 | 72 | 1015.4 | |
| 20260506232054 | 9 | 0.0 | 0.0 | 0.00 | 0.03 | 0.00 | 71 | 1015.3 | |
| 20260506231050 | 9 | 0.0 | 0.0 | 0.00 | 0.03 | 0.00 | 70 | 1015.3 | |
| 20260506230107 | 9 | 0.0 | 0.0 | 0.00 | 0.03 | 0.00 | 70 | 1015.2 | |
| 20260506225043 | 9 | 0.0 | 0.0 | 0.00 | 0.03 | 0.00 | 70 | 1015.1 | |
| 20260506224039 | 9 | 0.0 | 0.0 | 0.00 | 0.03 | 0.00 | 69 | 1015.0 | |
| 20260506223056 | 9 | 0.0 | 0.0 | 0.00 | 0.03 | 0.00 | 68 | 1015.1 | |
| 20260506222032 | 10 | 0.0 | 0.0 | 0.00 | 0.03 | 0.00 | 68 | 1015.3 | |
| 20260506221050 | 10 | 0.0 | 0.0 | 0.00 | 0.03 | 0.00 | 68 | 1015.1 | |
| 20260506220026 | 10 | 0.0 | 0.0 | 0.00 | 0.03 | 0.00 | 67 | 1015.1 | |
| 20260506215021 | 10 | 0.0 | 0.0 | 0.00 | 0.03 | 0.03 | 67 | 1015.0 | |
| 20260506214040 | 10 | 0.0 | 1.6 | 0.00 | 0.03 | 0.03 | 66 | 1015.0 | |
| 20260506213113 | 10 | 0.0 | 3.2 | 0.00 | 0.03 | 0.03 | 65 | 1015.0 | |
| 20260506212131 | 10 | 293 | 0.0 | 3.2 | 0.00 | 0.03 | 0.03 | 64 | 1014.9 |
| 20260506211106 | 10 | 315 | 0.0 | 3.2 | 0.00 | 0.03 | 0.03 | 63 | 1014.7 |
| 20260506210106 | 10 | 0.0 | 0.0 | 0.00 | 0.03 | 0.03 | 62 | 1014.6 | |
| 20260506205058 | 10 | 0.0 | 0.0 | 0.00 | 0.03 | 0.03 | 62 | 1014.6 | |
| 20260506204056 | 10 | 0.0 | 3.2 | 0.00 | 0.03 | 0.03 | 61 | 1014.5 | |
| 20260506203051 | 10 | 0 | 0.0 | 3.2 | 0.00 | 0.03 | 0.03 | 61 | 1014.5 |
| 20260506202107 | 10 | 0.0 | 0.0 | 0.00 | 0.03 | 0.03 | 60 | 1014.5 | |
| 20260506201105 | 11 | 348 | 0.0 | 3.2 | 0.00 | 0.03 | 0.03 | 60 | 1014.5 |
| 20260506200039 | 11 | 0.0 | 3.2 | 0.00 | 0.03 | 0.03 | 59 | 1014.4 | |
| 20260506195036 | 11 | 23 | 0.0 | 3.2 | 0.00 | 0.03 | 0.03 | 59 | 1014.4 |
| 20260506194034 | 11 | 0.0 | 1.6 | 0.00 | 0.03 | 0.03 | 58 | 1014.2 | |
| 20260506193028 | 11 | 0.0 | 1.6 | 0.00 | 0.03 | 0.03 | 58 | 1014.1 | |
| 20260506192025 | 11 | 0.0 | 0.0 | 0.00 | 0.03 | 0.03 | 57 | 1014.0 | |
| 20260506191021 | 11 | 90 | 0.0 | 6.4 | 0.00 | 0.03 | 0.03 | 55 | 1013.8 |
| 20260506190114 | 11 | 90 | 0.0 | 3.2 | 0.00 | 0.03 | 0.03 | 54 | 1013.8 |
| 20260506185212 | 11 | 180 | 0.0 | 4.8 | 0.00 | 0.03 | 0.03 | 53 | 1013.7 |
| 20260506184107 | 11 | 81 | 1.6 | 4.8 | 0.00 | 0.03 | 0.03 | 54 | 1013.6 |
| 20260506183103 | 11 | 71 | 1.6 | 8.0 | 0.00 | 0.03 | 0.03 | 54 | 1013.5 |
| 20260506182101 | 11 | 68 | 1.6 | 4.8 | 0.00 | 0.03 | 0.03 | 55 | 1013.4 |
| 20260506181056 | 11 | 323 | 1.6 | 6.4 | 0.00 | 0.03 | 0.03 | 55 | 1013.2 |
| 20260506180052 | 11 | 292 | 1.6 | 6.4 | 0.00 | 0.03 | 0.03 | 55 | 1013.1 |
| 20260506175048 | 11 | 313 | 0.0 | 4.8 | 0.00 | 0.03 | 0.03 | 54 | 1013.0 |
| 20260506174045 | 11 | 78 | 1.6 | 8.0 | 0.00 | 0.03 | 0.03 | 53 | 1013.0 |
| 20260506173044 | 11 | 82 | 3.2 | 12.9 | 0.00 | 0.03 | 0.03 | 52 | 1012.9 |
| 20260506172059 | 12 | 19 | 3.2 | 11.3 | 0.00 | 0.03 | 0.03 | 50 | 1012.8 |
| 20260506171035 | 12 | 225 | 6.4 | 12.9 | 0.00 | 0.03 | 0.03 | 45 | 1012.6 |
| 20260506170031 | 12 | 248 | 4.8 | 16.1 | 0.00 | 0.03 | 0.03 | 45 | 1012.5 |
| 20260506165028 | 13 | 354 | 1.6 | 9.7 | 0.00 | 0.03 | 0.03 | 44 | 1012.4 |
| 20260506164024 | 13 | 14 | 3.2 | 11.3 | 0.00 | 0.03 | 0.03 | 42 | 1012.2 |
| 20260506163020 | 13 | 111 | 1.6 | 6.4 | 0.00 | 0.03 | 0.03 | 41 | 1012.1 |
| 20260506162015 | 13 | 82 | 4.8 | 11.3 | 0.00 | 0.03 | 0.03 | 39 | 1012.0 |
| 20260506161111 | 14 | 118 | 3.2 | 6.4 | 0.00 | 0.03 | 0.03 | 38 | 1012.0 |
| 20260506160107 | 14 | 357 | 3.2 | 12.9 | 0.00 | 0.03 | 0.03 | 37 | 1012.0 |
| 20260506155103 | 15 | 29 | 4.8 | 14.5 | 0.00 | 0.03 | 0.03 | 35 | 1012.0 |
| 20260506154100 | 15 | 225 | 1.6 | 8.0 | 0.00 | 0.03 | 0.03 | 36 | 1012.0 |
| 20260506153056 | 15 | 334 | 3.2 | 17.7 | 0.00 | 0.03 | 0.03 | 33 | 1012.0 |
| 20260506152052 | 15 | 333 | 3.2 | 14.5 | 0.00 | 0.03 | 0.03 | 32 | 1011.9 |
| 20260506151048 | 16 | 195 | 6.4 | 12.9 | 0.00 | 0.03 | 0.03 | 32 | 1011.7 |
| 20260506145037 | 15 | 84 | 6.4 | 12.9 | 0.00 | 0.03 | 0.03 | 34 | 1011.6 |
| 20260506144035 | 15 | 331 | 3.2 | 11.3 | 0.00 | 0.03 | 0.03 | 36 | 1011.7 |
| 20260506143051 | 15 | 326 | 3.2 | 12.9 | 0.00 | 0.03 | 0.03 | 37 | 1011.8 |
| 20260506142028 | 16 | 70 | 6.4 | 17.7 | 0.00 | 0.03 | 0.03 | 35 | 1011.7 |
| 20260506141022 | 16 | 75 | 3.2 | 16.1 | 0.00 | 0.03 | 0.03 | 37 | 1011.7 |
| 20260506140019 | 16 | 33 | 3.2 | 8.0 | 0.00 | 0.03 | 0.03 | 38 | 1011.6 |
| 20260506135035 | 15 | 64 | 4.8 | 14.5 | 0.00 | 0.03 | 0.03 | 37 | 1011.6 |
| 20260506134221 | 15 | 75 | 4.8 | 12.9 | 0.00 | 0.03 | 0.03 | 38 | 1011.6 |
| 20260506133108 | 15 | 82 | 6.4 | 12.9 | 0.00 | 0.03 | 0.03 | 36 | 1011.5 |
| 20260506132104 | 16 | 86 | 3.2 | 11.3 | 0.00 | 0.03 | 0.03 | 34 | 1011.4 |
| 20260506131100 | 16 | 79 | 3.2 | 9.7 | 0.00 | 0.03 | 0.03 | 33 | 1011.4 |
| 20260506130057 | 16 | 94 | 3.2 | 12.9 | 0.00 | 0.03 | 0.03 | 32 | 1011.3 |
| 20260506125054 | 16 | 84 | 4.8 | 12.9 | 0.00 | 0.03 | 0.03 | 33 | 1011.3 |
| 20260506124051 | 16 | 115 | 3.2 | 12.9 | 0.00 | 0.03 | 0.03 | 35 | 1011.2 |